04-01-2023, 00:00:02,    217,    1.7,   10.5,   0.00,   0.00, 1009.3,   93.6, -999.0
04-01-2023, 00:00:12,    254,    1.6,   10.4,   0.00,   0.00, 1009.3,   93.8, -999.0
04-01-2023, 00:00:22,    185,    4.0,   10.4,   0.00,   0.00, 1009.4,   93.7, -999.0
04-01-2023, 00:00:32,    220,    7.7,   10.4,   0.00,   0.00, 1009.3,   93.6, -999.0
04-01-2023, 00:00:42,    249,    6.1,   10.4,   0.00,   0.00, 1009.3,   93.2, -999.0
04-01-2023, 00:00:52,    235,    8.1,   10.5,   0.00,   0.00, 1009.3,   93.0, -999.0
04-01-2023, 00:01:02,    231,    5.0,   10.5,   0.00,   0.00, 1009.3,   92.7, -999.0
04-01-2023, 00:01:12,    194,    2.6,   10.5,   0.00,   0.00, 1009.2,   92.7, -999.0
04-01-2023, 00:01:22,    284,    1.5,   10.5,   0.00,   0.00, 1009.2,   92.8, -999.0
04-01-2023, 00:01:32,    173,    0.5,   10.4,   0.00,   0.00, 1009.2,   92.9, -999.0
04-01-2023, 00:01:42,    201,    2.5,   10.5,   0.00,   0.00, 1009.3,   93.0, -999.0
04-01-2023, 00:01:52,    216,    5.3,   10.5,   0.00,   0.00, 1009.3,   92.8, -999.0
04-01-2023, 00:02:02,    215,    3.3,   10.5,   0.00,   0.00, 1009.2,   92.5, -999.0
04-01-2023, 00:02:12,    213,    1.7,   10.5,   0.00,   0.00, 1009.2,   92.5, -999.0
04-01-2023, 00:02:22,    230,    3.5,   10.5,   0.00,   0.00, 1009.3,   92.6, -999.0
04-01-2023, 00:02:32,    213,    2.8,   10.5,   0.00,   0.00, 1009.3,   92.6, -999.0
04-01-2023, 00:02:42,    202,    2.8,   10.4,   0.00,   0.00, 1009.3,   92.7, -999.0
04-01-2023, 00:02:52,    240,    1.8,   10.5,   0.00,   0.00, 1009.3,   92.6, -999.0
04-01-2023, 00:03:02,    215,    3.7,   10.4,   0.00,   0.00, 1009.3,   92.5, -999.0
04-01-2023, 00:03:12,    251,    2.1,   10.5,   0.00,   0.00, 1009.3,   92.5, -999.0
04-01-2023, 00:03:22,    207,    2.6,   10.4,   0.00,   0.00, 1009.4,   92.5, -999.0
04-01-2023, 00:03:32,    258,    3.9,   10.5,   0.00,   0.00, 1009.3,   92.6, -999.0
04-01-2023, 00:03:42,    242,    6.2,   10.5,   0.00,   0.00, 1009.4,   92.5, -999.0
04-01-2023, 00:03:52,    218,    7.7,   10.4,   0.00,   0.00, 1009.3,   92.3, -999.0
04-01-2023, 00:04:02,    221,    7.0,   10.4,   0.00,   0.00, 1009.3,   92.1, -999.0
04-01-2023, 00:04:12,    255,    3.4,   10.4,   0.00,   0.00, 1009.4,   92.0, -999.0
04-01-2023, 00:04:22,    207,    0.6,   10.3,   0.00,   0.00, 1009.3,   92.0, -999.0
04-01-2023, 00:04:32,    197,    3.4,   10.5,   0.00,   0.00, 1009.3,   92.1, -999.0
04-01-2023, 00:04:42,    168,    1.3,   10.5,   0.00,   0.00, 1009.2,   92.0, -999.0
04-01-2023, 00:04:52,    212,    3.1,   10.5,   0.00,   0.00, 1009.3,   92.0, -999.0
04-01-2023, 00:05:02,    235,    3.5,   10.5,   0.00,   0.00, 1009.3,   92.0, -999.0
04-01-2023, 00:05:12,    186,    4.2,   10.5,   0.00,   0.00, 1009.3,   92.0, -999.0
04-01-2023, 00:05:22,    217,    6.9,   10.5,   0.00,   0.00, 1009.2,   91.8, -999.0
04-01-2023, 00:05:32,    165,    4.5,   10.5,   0.00,   0.00, 1009.2,   91.3, -999.0
04-01-2023, 00:05:42,    246,    2.5,   10.5,   0.00,   0.00, 1009.2,   91.4, -999.0
04-01-2023, 00:05:52,    184,    4.1,   10.5,   0.00,   0.00, 1009.2,   91.4, -999.0
04-01-2023, 00:06:02,    201,    3.6,   10.5,   0.00,   0.00, 1009.3,   91.3, -999.0
04-01-2023, 00:06:12,    257,    5.7,   10.5,   0.00,   0.00, 1009.2,   91.3, -999.0
04-01-2023, 00:06:22,    226,    4.0,   10.5,   0.00,   0.00, 1009.2,   91.2, -999.0
04-01-2023, 00:06:31,    198,    3.4,   10.5,   0.00,   0.00, 1009.3,   91.1, -999.0
04-01-2023, 00:06:42,    215,    4.5,   10.5,   0.00,   0.00, 1009.2,   91.2, -999.0
04-01-2023, 00:06:52,    187,    5.3,   10.5,   0.00,   0.00, 1009.3,   91.2, -999.0
04-01-2023, 00:07:01,    177,    5.3,   10.5,   0.00,   0.00, 1009.3,   91.2, -999.0
04-01-2023, 00:07:11,    255,    4.5,   10.5,   0.00,   0.00, 1009.3,   91.0, -999.0
04-01-2023, 00:07:22,    184,    4.1,   10.5,   0.00,   0.00, 1009.3,   90.9, -999.0
04-01-2023, 00:07:31,    250,    2.1,   10.5,   0.00,   0.00, 1009.4,   90.8, -999.0
04-01-2023, 00:07:41,    194,    4.2,   10.5,   0.00,   0.00, 1009.2,   91.0, -999.0
04-01-2023, 00:07:51,    211,    3.0,   10.6,   0.00,   0.00, 1009.3,   90.6, -999.0
04-01-2023, 00:08:02,    159,    5.7,   10.5,   0.00,   0.00, 1009.3,   90.5, -999.0
04-01-2023, 00:08:11,    188,    6.4,   10.4,   0.00,   0.00, 1009.2,   90.2, -999.0
04-01-2023, 00:08:21,    188,    5.3,   10.5,   0.00,   0.00, 1009.2,   90.0, -999.0
04-01-2023, 00:08:32,    249,    4.9,   10.5,   0.00,   0.00, 1009.2,   89.9, -999.0
04-01-2023, 00:08:41,    231,    5.3,   10.6,   0.00,   0.00, 1009.2,   89.7, -999.0
04-01-2023, 00:08:51,    221,    3.2,   10.6,   0.00,   0.00, 1009.2,   89.6, -999.0
04-01-2023, 00:09:01,    253,    3.3,   10.5,   0.00,   0.00, 1009.3,   89.6, -999.0
04-01-2023, 00:09:11,    210,    5.6,   10.6,   0.00,   0.00, 1009.2,   89.6, -999.0
04-01-2023, 00:09:21,    227,    3.6,   10.5,   0.00,   0.00, 1009.2,   89.5, -999.0
04-01-2023, 00:09:31,    236,    2.3,   10.5,   0.00,   0.00, 1009.2,   89.5, -999.0
04-01-2023, 00:09:41,    180,    3.8,   10.5,   0.00,   0.00, 1009.2,   89.4, -999.0
04-01-2023, 00:09:51,    227,    5.9,   10.6,   0.00,   0.00, 1009.3,   89.3, -999.0
04-01-2023, 00:10:01,    245,    2.7,   10.6,   0.00,   0.00, 1009.2,   89.2, -999.0
04-01-2023, 00:10:11,    221,    2.0,   10.6,   0.00,   0.00, 1009.3,   89.1, -999.0
04-01-2023, 00:10:21,    201,    5.4,   10.6,   0.00,   0.00, 1009.2,   89.1, -999.0
04-01-2023, 00:10:31,    214,    6.0,   10.6,   0.00,   0.00, 1009.2,   89.0, -999.0
04-01-2023, 00:10:41,    206,    3.1,   10.6,   0.00,   0.00, 1009.2,   88.9, -999.0
04-01-2023, 00:10:51,    215,    1.9,   10.6,   0.00,   0.00, 1009.2,   89.0, -999.0
04-01-2023, 00:11:01,    222,    2.4,   10.6,   0.00,   0.00, 1009.2,   89.1, -999.0
04-01-2023, 00:11:11,    224,    1.2,   10.6,   0.00,   0.00, 1009.2,   89.2, -999.0
04-01-2023, 00:11:21,    234,    4.6,   10.6,   0.00,   0.00, 1009.2,   89.1, -999.0
04-01-2023, 00:11:31,    163,    5.5,   10.6,   0.00,   0.00, 1009.2,   89.0, -999.0
04-01-2023, 00:11:41,    180,    3.4,   10.6,   0.00,   0.00, 1009.2,   88.9, -999.0
04-01-2023, 00:11:51,    231,    3.3,   10.6,   0.00,   0.00, 1009.2,   88.7, -999.0
04-01-2023, 00:12:01,    174,    1.2,   10.5,   0.00,   0.00, 1009.2,   88.8, -999.0
04-01-2023, 00:12:11,    186,    0.7,   10.6,   0.00,   0.00, 1009.3,   88.7, -999.0
04-01-2023, 00:12:21,    150,    0.1,   10.5,   0.00,   0.00, 1009.2,   88.5, -999.0
04-01-2023, 00:12:31,    232,    3.9,   10.6,   0.00,   0.00, 1009.3,   88.7, -999.0
04-01-2023, 00:12:41,    242,    1.0,   10.6,   0.00,   0.00, 1009.3,   88.6, -999.0
04-01-2023, 00:12:51,    241,    0.3,   10.5,   0.00,   0.00, 1009.2,   88.6, -999.0
04-01-2023, 00:13:01,    225,    3.3,   10.5,   0.00,   0.00, 1009.3,   88.7, -999.0
04-01-2023, 00:13:11,    226,    7.9,   10.7,   0.00,   0.00, 1009.3,   88.7, -999.0
04-01-2023, 00:13:21,    231,    6.0,   10.6,   0.00,   0.00, 1009.2,   88.3, -999.0
04-01-2023, 00:13:31,    209,    3.8,   10.6,   0.00,   0.00, 1009.3,   87.9, -999.0
04-01-2023, 00:13:41,    232,    2.6,   10.6,   0.00,   0.00, 1009.3,   87.9, -999.0
04-01-2023, 00:13:51,    248,    4.1,   10.7,   0.00,   0.00, 1009.2,   87.8, -999.0
04-01-2023, 00:14:01,    184,    3.7,   10.7,   0.00,   0.00, 1009.3,   87.7, -999.0
04-01-2023, 00:14:10,    213,    5.7,   10.6,   0.00,   0.00, 1009.3,   87.7, -999.0
04-01-2023, 00:14:21,    188,    2.6,   10.6,   0.00,   0.00, 1009.3,   87.7, -999.0
04-01-2023, 00:14:31,    226,    2.9,   10.6,   0.00,   0.00, 1009.2,   87.7, -999.0
04-01-2023, 00:14:40,    244,    2.0,   10.6,   0.00,   0.00, 1009.3,   87.7, -999.0
04-01-2023, 00:14:50,    186,    0.7,   10.6,   0.00,   0.00, 1009.2,   87.5, -999.0
04-01-2023, 00:15:01,    216,    2.1,   10.6,   0.00,   0.00, 1009.3,   87.8, -999.0
04-01-2023, 00:15:11,    204,    4.5,   10.7,   0.00,   0.00, 1009.2,   87.7, -999.0
04-01-2023, 00:15:20,    197,    4.5,   10.6,   0.00,   0.00, 1009.2,   87.7, -999.0
04-01-2023, 00:15:31,    224,    4.5,   10.6,   0.00,   0.00, 1009.3,   87.6, -999.0
04-01-2023, 00:15:41,    238,    4.9,   10.6,   0.00,   0.00, 1009.2,   87.5, -999.0
04-01-2023, 00:15:50,    206,    1.5,   10.7,   0.00,   0.00, 1009.2,   87.6, -999.0
04-01-2023, 00:16:00,    217,    4.8,   10.6,   0.00,   0.00, 1009.2,   87.7, -999.0
04-01-2023, 00:16:11,    201,    4.2,   10.6,   0.00,   0.00, 1009.2,   87.5, -999.0
04-01-2023, 00:16:20,    211,    3.9,   10.6,   0.00,   0.00, 1009.2,   87.5, -999.0
04-01-2023, 00:16:30,    213,    3.2,   10.6,   0.00,   0.00, 1009.2,   87.5, -999.0
04-01-2023, 00:16:40,    214,    3.2,   10.6,   0.00,   0.00, 1009.3,   87.6, -999.0
04-01-2023, 00:16:51,    251,    2.5,   10.6,   0.00,   0.00, 1009.2,   87.6, -999.0
04-01-2023, 00:17:00,    224,    3.6,   10.6,   0.00,   0.00, 1009.2,   87.8, -999.0
04-01-2023, 00:17:10,    207,    3.4,   10.6,   0.00,   0.00, 1009.3,   87.8, -999.0
04-01-2023, 00:17:20,    220,    3.7,   10.6,   0.00,   0.00, 1009.2,   87.8, -999.0
04-01-2023, 00:17:30,    185,    2.8,   10.6,   0.00,   0.00, 1009.2,   87.8, -999.0
04-01-2023, 00:17:40,    173,    1.9,   10.6,   0.00,   0.00, 1009.2,   87.9, -999.0
04-01-2023, 00:17:50,    244,    1.3,   10.5,   0.00,   0.00, 1009.2,   88.0, -999.0
04-01-2023, 00:18:00,    206,    1.6,   10.6,   0.00,   0.00, 1009.2,   88.0, -999.0
04-01-2023, 00:18:10,    228,    4.8,   10.6,   0.00,   0.00, 1009.1,   88.1, -999.0
04-01-2023, 00:18:20,    217,    3.9,   10.5,   0.00,   0.00, 1009.2,   88.0, -999.0
04-01-2023, 00:18:30,    204,    7.1,   10.6,   0.00,   0.00, 1009.2,   87.8, -999.0
04-01-2023, 00:18:40,    183,    4.4,   10.5,   0.00,   0.00, 1009.2,   87.7, -999.0
04-01-2023, 00:18:50,    206,    2.7,   10.6,   0.00,   0.00, 1009.2,   87.6, -999.0
04-01-2023, 00:19:00,    248,    2.7,   10.6,   0.00,   0.00, 1009.2,   87.5, -999.0
04-01-2023, 00:19:10,    287,    0.3,   10.5,   0.00,   0.00, 1009.1,   87.4, -999.0
04-01-2023, 00:19:20,    228,    0.4,   10.5,   0.00,   0.00, 1009.1,   87.5, -999.0
04-01-2023, 00:19:30,    187,    1.5,   10.5,   0.00,   0.00, 1009.2,   87.6, -999.0
04-01-2023, 00:19:40,    218,    3.8,   10.6,   0.00,   0.00, 1009.2,   87.6, -999.0
04-01-2023, 00:19:50,    206,    2.0,   10.5,   0.00,   0.00, 1009.2,   87.5, -999.0
04-01-2023, 00:20:00,    199,    5.5,   10.5,   0.00,   0.00, 1009.2,   87.5, -999.0
04-01-2023, 00:20:10,    205,    5.1,   10.5,   0.00,   0.00, 1009.2,   87.4, -999.0
04-01-2023, 00:20:20,    166,    2.1,   10.6,   0.00,   0.00, 1009.2,   87.2, -999.0
04-01-2023, 00:20:30,    196,    3.0,   10.6,   0.00,   0.00, 1009.2,   87.5, -999.0
04-01-2023, 00:20:40,    157,    3.4,   10.6,   0.00,   0.00, 1009.2,   87.4, -999.0
04-01-2023, 00:20:50,    232,    1.1,   10.4,   0.00,   0.00, 1009.2,   87.4, -999.0
04-01-2023, 00:21:00,    223,    0.8,   10.5,   0.00,   0.00, 1009.1,   87.4, -999.0
04-01-2023, 00:21:10,    246,    3.6,   10.6,   0.00,   0.00, 1009.2,   87.5, -999.0
04-01-2023, 00:21:20,    249,    1.7,   10.5,   0.00,   0.00, 1009.2,   87.4, -999.0
04-01-2023, 00:21:30,    243,    0.7,   10.6,   0.00,   0.00, 1009.2,   87.5, -999.0
04-01-2023, 00:21:40,    246,    2.7,   10.6,   0.00,   0.00, 1009.2,   87.7, -999.0
04-01-2023, 00:21:50,    178,    1.9,   10.6,   0.00,   0.00, 1009.2,   87.7, -999.0
04-01-2023, 00:22:00,    204,    2.5,   10.5,   0.00,   0.00, 1009.2,   87.8, -999.0
04-01-2023, 00:22:10,    236,    3.1,   10.5,   0.00,   0.00, 1009.2,   87.8, -999.0
04-01-2023, 00:22:19,    175,    2.1,   10.5,   0.00,   0.00, 1009.2,   87.6, -999.0
04-01-2023, 00:22:30,    196,    2.4,   10.5,   0.00,   0.00, 1009.2,   87.7, -999.0
04-01-2023, 00:22:40,    216,    4.4,   10.5,   0.00,   0.00, 1009.2,   87.7, -999.0
04-01-2023, 00:22:50,    222,    3.8,   10.5,   0.00,   0.00, 1009.2,   87.6, -999.0
04-01-2023, 00:22:59,    226,    2.8,   10.5,   0.00,   0.00, 1009.2,   87.7, -999.0
04-01-2023, 00:23:10,    166,    1.8,   10.4,   0.00,   0.00, 1009.2,   87.6, -999.0
04-01-2023, 00:23:20,    185,    1.3,   10.5,   0.00,   0.00, 1009.2,   87.6, -999.0
04-01-2023, 00:23:29,    244,    1.0,   10.5,   0.00,   0.00, 1009.2,   87.8, -999.0
04-01-2023, 00:23:40,    217,    1.0,   10.5,   0.00,   0.00, 1009.2,   87.9, -999.0
04-01-2023, 00:23:50,    237,    1.4,   10.5,   0.00,   0.00, 1009.2,   87.9, -999.0
04-01-2023, 00:23:59,    222,    2.4,   10.5,   0.00,   0.00, 1009.2,   88.0, -999.0
04-01-2023, 00:24:09,    244,    2.5,   10.5,   0.00,   0.00, 1009.2,   88.0, -999.0
04-01-2023, 00:24:20,    193,    1.7,   10.5,   0.00,   0.00, 1009.2,   88.1, -999.0
04-01-2023, 00:24:30,    253,    0.7,   10.5,   0.00,   0.00, 1009.1,   88.0, -999.0
04-01-2023, 00:24:39,    206,    2.9,   10.4,   0.00,   0.00, 1009.2,   88.2, -999.0
04-01-2023, 00:24:49,    220,    4.7,   10.4,   0.00,   0.00, 1009.2,   88.2, -999.0
04-01-2023, 00:25:00,    182,    2.9,   10.5,   0.00,   0.00, 1009.2,   88.1, -999.0
04-01-2023, 00:25:09,    208,    5.5,   10.5,   0.00,   0.00, 1009.2,   88.1, -999.0
04-01-2023, 00:25:19,    191,    1.8,   10.5,   0.00,   0.00, 1009.2,   88.1, -999.0
04-01-2023, 00:25:29,    179,    2.7,   10.5,   0.00,   0.00, 1009.2,   88.2, -999.0
04-01-2023, 00:25:39,    225,    0.2,   10.4,   0.00,   0.00, 1009.1,   88.0, -999.0
04-01-2023, 00:25:49,    159,    2.5,   10.4,   0.00,   0.00, 1009.2,   88.5, -999.0
04-01-2023, 00:25:59,    192,    2.9,   10.5,   0.00,   0.00, 1009.1,   88.3, -999.0
04-01-2023, 00:26:09,    281,    3.5,   10.5,   0.00,   0.00, 1009.1,   88.3, -999.0
04-01-2023, 00:26:19,    168,    2.0,   10.5,   0.00,   0.00, 1009.1,   88.2, -999.0
04-01-2023, 00:26:29,    214,    1.8,   10.4,   0.00,   0.00, 1009.1,   88.1, -999.0
04-01-2023, 00:26:39,    251,    4.4,   10.5,   0.00,   0.00, 1009.2,   88.0, -999.0
04-01-2023, 00:26:49,    216,    4.0,   10.5,   0.00,   0.00, 1009.2,   88.0, -999.0
04-01-2023, 00:26:59,    221,    2.8,   10.5,   0.00,   0.00, 1009.1,   88.0, -999.0
04-01-2023, 00:27:09,    266,    3.0,   10.5,   0.00,   0.00, 1009.2,   87.8, -999.0
04-01-2023, 00:27:19,    218,    2.4,   10.5,   0.00,   0.00, 1009.2,   87.9, -999.0
04-01-2023, 00:27:29,    215,    5.5,   10.5,   0.00,   0.00, 1009.1,   88.0, -999.0
04-01-2023, 00:27:39,    206,    4.4,   10.5,   0.00,   0.00, 1009.2,   87.7, -999.0
04-01-2023, 00:27:49,    206,    4.6,   10.5,   0.00,   0.00, 1009.2,   87.6, -999.0
04-01-2023, 00:27:59,    206,    4.6,   10.5,   0.00,   0.00, 1009.2,   87.5, -999.0
04-01-2023, 00:28:09,    217,    1.5,   10.5,   0.00,   0.00, 1009.2,   87.4, -999.0
04-01-2023, 00:28:19,    163,    5.4,   10.5,   0.00,   0.00, 1009.2,   87.5, -999.0
04-01-2023, 00:28:29,    222,    3.2,   10.5,   0.00,   0.00, 1009.2,   87.5, -999.0
04-01-2023, 00:28:39,    233,    4.9,   10.5,   0.00,   0.00, 1009.2,   87.5, -999.0
04-01-2023, 00:28:49,    172,    2.4,   10.5,   0.00,   0.00, 1009.2,   87.4, -999.0
04-01-2023, 00:28:59,    218,    3.7,   10.5,   0.00,   0.00, 1009.2,   87.4, -999.0
04-01-2023, 00:29:09,    148,    2.9,   10.5,   0.00,   0.00, 1009.2,   87.4, -999.0
04-01-2023, 00:29:19,    217,    2.3,   10.5,   0.00,   0.00, 1009.2,   87.5, -999.0
04-01-2023, 00:29:29,    210,    1.8,   10.5,   0.00,   0.00, 1009.2,   87.6, -999.0
04-01-2023, 00:29:39,    222,    1.5,   10.5,   0.00,   0.00, 1009.2,   87.7, -999.0
04-01-2023, 00:29:49,    201,    3.6,   10.5,   0.00,   0.00, 1009.2,   87.7, -999.0
04-01-2023, 00:29:59,    256,    4.1,   10.5,   0.00,   0.00, 1009.2,   87.8, -999.0
04-01-2023, 00:30:09,    276,    1.5,   10.5,   0.00,   0.00, 1009.2,   87.9, -999.0
04-01-2023, 00:30:19,    206,    1.7,   10.5,   0.00,   0.00, 1009.2,   87.9, -999.0
04-01-2023, 00:30:29,    218,    3.9,   10.5,   0.00,   0.00, 1009.2,   88.1, -999.0
04-01-2023, 00:30:38,    259,    2.1,   10.4,   0.00,   0.00, 1009.2,   88.1, -999.0
04-01-2023, 00:30:49,    216,    2.0,   10.5,   0.00,   0.00, 1009.1,   88.1, -999.0
04-01-2023, 00:30:59,    220,    1.4,   10.5,   0.00,   0.00, 1009.2,   88.2, -999.0
04-01-2023, 00:31:08,    176,    3.2,   10.4,   0.00,   0.00, 1009.2,   88.2, -999.0
04-01-2023, 00:31:19,    197,    1.1,   10.4,   0.00,   0.00, 1009.1,   88.4, -999.0
04-01-2023, 00:31:29,    181,    4.0,   10.4,   0.00,   0.00, 1009.1,   88.5, -999.0
04-01-2023, 00:31:39,    208,    2.3,   10.4,   0.00,   0.00, 1009.1,   88.5, -999.0
04-01-2023, 00:31:48,    186,    3.4,   10.5,   0.00,   0.00, 1009.1,   88.6, -999.0
04-01-2023, 00:31:59,    205,    4.1,   10.4,   0.00,   0.00, 1009.2,   88.5, -999.0
04-01-2023, 00:32:09,    237,    4.0,   10.4,   0.00,   0.00, 1009.1,   88.7, -999.0
04-01-2023, 00:32:18,    245,    5.9,   10.5,   0.00,   0.00, 1009.0,   88.7, -999.0
04-01-2023, 00:32:28,    194,    4.7,   10.4,   0.00,   0.00, 1009.1,   88.7, -999.0
04-01-2023, 00:32:39,    194,    3.5,   10.3,   0.00,   0.00, 1009.1,   88.7, -999.0
04-01-2023, 00:32:48,    247,    5.9,   10.4,   0.00,   0.00, 1009.1,   88.7, -999.0
04-01-2023, 00:32:58,    207,    3.0,   10.4,   0.00,   0.00, 1009.1,   88.8, -999.0
04-01-2023, 00:33:08,    219,    1.4,   10.4,   0.00,   0.00, 1009.1,   88.8, -999.0
04-01-2023, 00:33:18,    161,    1.0,   10.3,   0.00,   0.00, 1009.1,   88.9, -999.0
04-01-2023, 00:33:28,    209,    2.2,   10.4,   0.00,   0.00, 1009.2,   89.0, -999.0
04-01-2023, 00:33:38,    187,    4.1,   10.3,   0.00,   0.00, 1009.1,   89.0, -999.0
04-01-2023, 00:33:48,    174,    1.8,   10.4,   0.00,   0.00, 1009.1,   88.9, -999.0
04-01-2023, 00:33:58,    222,    2.5,   10.4,   0.00,   0.00, 1009.2,   88.9, -999.0
04-01-2023, 00:34:08,    181,    3.6,   10.4,   0.00,   0.00, 1009.2,   88.9, -999.0
04-01-2023, 00:34:18,    220,    2.7,   10.4,   0.00,   0.00, 1009.2,   89.0, -999.0
04-01-2023, 00:34:28,    210,    2.0,   10.4,   0.00,   0.00, 1009.2,   89.1, -999.0
04-01-2023, 00:34:38,    201,    3.2,   10.4,   0.00,   0.00, 1009.2,   89.1, -999.0
04-01-2023, 00:34:48,    194,    4.7,   10.4,   0.00,   0.00, 1009.2,   89.3, -999.0
04-01-2023, 00:34:58,    234,    7.2,   10.4,   0.00,   0.00, 1009.2,   89.1, -999.0
04-01-2023, 00:35:08,    234,    5.5,   10.4,   0.00,   0.00, 1009.1,   89.1, -999.0
04-01-2023, 00:35:18,    190,    2.5,   10.4,   0.00,   0.00, 1009.2,   89.1, -999.0
04-01-2023, 00:35:28,    198,    2.8,   10.4,   0.00,   0.00, 1009.2,   89.1, -999.0
04-01-2023, 00:35:38,    237,    4.0,   10.3,   0.00,   0.00, 1009.2,   89.2, -999.0
04-01-2023, 00:35:48,    231,    3.6,   10.3,   0.00,   0.00, 1009.2,   89.1, -999.0
04-01-2023, 00:35:58,    193,    1.6,   10.4,   0.00,   0.00, 1009.1,   89.3, -999.0
04-01-2023, 00:36:08,    203,    5.2,   10.3,   0.00,   0.00, 1009.2,   89.3, -999.0
04-01-2023, 00:36:18,    244,    3.2,   10.4,   0.00,   0.00, 1009.2,   89.2, -999.0
04-01-2023, 00:36:28,    258,    1.1,   10.4,   0.00,   0.00, 1009.2,   89.4, -999.0
04-01-2023, 00:36:38,    197,    1.9,   10.4,   0.00,   0.00, 1009.2,   89.6, -999.0
04-01-2023, 00:36:48,    214,    4.4,   10.4,   0.00,   0.00, 1009.2,   89.7, -999.0
04-01-2023, 00:36:58,    234,    3.5,   10.4,   0.00,   0.00, 1009.2,   89.7, -999.0
04-01-2023, 00:37:08,    214,    1.4,   10.3,   0.00,   0.00, 1009.2,   89.6, -999.0
04-01-2023, 00:37:18,    244,    1.7,   10.4,   0.00,   0.00, 1009.2,   89.7, -999.0
04-01-2023, 00:37:28,    195,    2.5,   10.4,   0.00,   0.00, 1009.2,   89.9, -999.0
04-01-2023, 00:37:38,    253,    4.1,   10.3,   0.00,   0.00, 1009.2,   90.0, -999.0
04-01-2023, 00:37:48,    216,    5.4,   10.4,   0.00,   0.00, 1009.2,   90.0, -999.0
04-01-2023, 00:37:58,    186,    2.9,   10.3,   0.00,   0.00, 1009.2,   90.1, -999.0
04-01-2023, 00:38:08,    225,    1.9,   10.3,   0.00,   0.00, 1009.2,   90.2, -999.0
04-01-2023, 00:38:18,    201,    2.3,   10.4,   0.00,   0.00, 1009.2,   90.2, -999.0
04-01-2023, 00:38:28,    179,    1.9,   10.3,   0.00,   0.00, 1009.2,   90.2, -999.0
04-01-2023, 00:38:38,    182,    2.8,   10.3,   0.00,   0.00, 1009.2,   90.1, -999.0
04-01-2023, 00:38:47,    222,    3.0,   10.2,   0.00,   0.00, 1009.1,   90.1, -999.0
04-01-2023, 00:38:58,    202,    4.9,   10.3,   0.00,   0.00, 1009.1,   90.2, -999.0
04-01-2023, 00:39:08,    232,    2.7,   10.3,   0.00,   0.00, 1009.2,   90.2, -999.0
04-01-2023, 00:39:17,    213,    0.5,   10.3,   0.00,   0.00, 1009.1,   90.2, -999.0
04-01-2023, 00:39:28,    213,    2.0,   10.3,   0.00,   0.00, 1009.1,   90.3, -999.0
04-01-2023, 00:39:38,    211,    3.7,   10.3,   0.00,   0.00, 1009.2,   90.4, -999.0
04-01-2023, 00:39:48,    242,    4.9,   10.2,   0.00,   0.00, 1009.2,   90.2, -999.0
04-01-2023, 00:39:57,    260,    2.2,   10.3,   0.00,   0.00, 1009.2,   90.2, -999.0
04-01-2023, 00:40:08,    206,    0.0,   10.2,   0.00,   0.00, 1009.0,   90.1, -999.0
04-01-2023, 00:40:18,    205,    4.6,   10.2,   0.00,   0.00, 1009.1,   90.5, -999.0
04-01-2023, 00:40:27,    220,    4.6,   10.3,   0.00,   0.00, 1009.1,   90.6, -999.0
04-01-2023, 00:40:37,    251,    2.8,   10.3,   0.00,   0.00, 1009.1,   90.8, -999.0
04-01-2023, 00:40:48,    232,    3.2,   10.3,   0.00,   0.00, 1009.1,   90.8, -999.0
04-01-2023, 00:40:57,    188,    3.8,   10.3,   0.00,   0.00, 1009.2,   90.9, -999.0
04-01-2023, 00:41:07,    230,    1.4,   10.3,   0.00,   0.00, 1009.2,   90.9, -999.0
04-01-2023, 00:41:17,    228,    0.2,   10.3,   0.00,   0.00, 1009.1,   90.9, -999.0
04-01-2023, 00:41:27,    208,    1.9,   10.3,   0.00,   0.00, 1009.1,   91.1, -999.0
04-01-2023, 00:41:37,    245,    2.0,   10.3,   0.00,   0.00, 1009.2,   91.1, -999.0
04-01-2023, 00:41:47,    176,    1.0,   10.3,   0.00,   0.00, 1009.2,   91.1, -999.0
04-01-2023, 00:41:57,    172,    1.5,   10.3,   0.00,   0.00, 1009.2,   91.2, -999.0
04-01-2023, 00:42:07,    240,    0.7,   10.3,   0.00,   0.00, 1009.1,   91.4, -999.0
04-01-2023, 00:42:17,    225,    1.4,   10.3,   0.00,   0.00, 1009.1,   91.2, -999.0
04-01-2023, 00:42:27,    228,    0.4,   10.3,   0.00,   0.00, 1009.0,   91.2, -999.0
04-01-2023, 00:42:37,    247,    3.4,   10.3,   0.00,   0.00, 1009.1,   91.4, -999.0
04-01-2023, 00:42:47,    244,    5.5,   10.3,   0.00,   0.00, 1009.1,   91.2, -999.0
04-01-2023, 00:42:57,    218,    6.2,   10.2,   0.00,   0.00, 1009.2,   91.1, -999.0
04-01-2023, 00:43:07,    193,    4.9,   10.3,   0.00,   0.00, 1009.1,   90.9, -999.0
04-01-2023, 00:43:17,    232,    3.8,   10.3,   0.00,   0.00, 1009.2,   90.7, -999.0
04-01-2023, 00:43:27,    226,    1.5,   10.3,   0.00,   0.00, 1009.1,   90.6, -999.0
04-01-2023, 00:43:37,    218,    1.5,   10.3,   0.00,   0.00, 1009.1,   90.6, -999.0
04-01-2023, 00:43:47,    231,    3.4,   10.3,   0.00,   0.00, 1009.1,   90.6, -999.0
04-01-2023, 00:43:57,    204,    1.9,   10.3,   0.00,   0.00, 1009.2,   90.6, -999.0
04-01-2023, 00:44:07,    176,    1.6,   10.3,   0.00,   0.00, 1009.2,   90.7, -999.0
04-01-2023, 00:44:17,    225,    2.6,   10.3,   0.00,   0.00, 1009.2,   90.7, -999.0
04-01-2023, 00:44:27,    233,    3.5,   10.2,   0.00,   0.00, 1009.2,   90.9, -999.0
04-01-2023, 00:44:37,    296,    2.6,   10.2,   0.00,   0.00, 1009.1,   90.9, -999.0
04-01-2023, 00:44:47,    203,    0.9,   10.3,   0.00,   0.00, 1009.1,   91.0, -999.0
04-01-2023, 00:44:57,    180,    5.8,   10.2,   0.00,   0.00, 1009.1,   91.1, -999.0
04-01-2023, 00:45:07,    192,    6.2,   10.3,   0.00,   0.00, 1009.2,   91.0, -999.0
04-01-2023, 00:45:17,    203,    3.0,   10.2,   0.00,   0.00, 1009.1,   90.8, -999.0
04-01-2023, 00:45:27,    158,    3.6,   10.3,   0.00,   0.00, 1009.1,   91.1, -999.0
04-01-2023, 00:45:37,    192,    2.7,   10.3,   0.00,   0.00, 1009.1,   91.3, -999.0
04-01-2023, 00:45:47,    215,    0.2,   10.1,   0.00,   0.00, 1009.0,   91.2, -999.0
04-01-2023, 00:45:57,    236,    2.4,   10.2,   0.00,   0.00, 1009.1,   91.8, -999.0
04-01-2023, 00:46:07,    176,    2.9,   10.2,   0.00,   0.00, 1009.1,   92.2, -999.0
04-01-2023, 00:46:17,    257,    0.7,   10.2,   0.00,   0.00, 1009.0,   92.5, -999.0
04-01-2023, 00:46:27,    174,    3.4,   10.2,   0.00,   0.00, 1009.2,   92.9, -999.0
04-01-2023, 00:46:37,    221,    3.4,   10.2,   0.00,   0.00, 1009.1,   93.2, -999.0
04-01-2023, 00:46:47,    217,    5.1,   10.2,   0.00,   0.00, 1009.1,   93.3, -999.0